This is the latest recevied weather packets stored in our database for station/object CT2IRJ-11. If no packets are shown the sender has not sent any weather packets the latest 10 day(s).
| Time | Temp. | Humidity | Pressure | Rain* | Wind** | Luminosity | Snow |
|---|---|---|---|---|---|---|---|
| 1777838010 | 14.44° C | 85% | 1014.6 hPa | 0 mm | - | 0 W/m² | - |
| 1777837709 | 14.44° C | 85% | 1014.6 hPa | 0 mm | - | 0 W/m² | - |
| 1777837409 | 15° C | 84% | 1014.2 hPa | 0 mm | - | 0 W/m² | - |
| 1777837115 | 15° C | 84% | 1014.2 hPa | 0 mm | - | 0 W/m² | - |
| 1777836810 | 15° C | 83% | 1014.2 hPa | 0 mm | - | 1 W/m² | - |
| 1777836510 | 15° C | 82% | 1014.2 hPa | 0 mm | - | 2 W/m² | - |
| 1777836209 | 15° C | 82% | 1013.9 hPa | 0 mm | - | 3 W/m² | - |
| 1777835910 | 15° C | 81% | 1013.9 hPa | 0 mm | - | 6 W/m² | - |
| 1777835610 | 15.56° C | 81% | 1013.9 hPa | 0 mm | - | 8 W/m² | - |
| 1777835315 | 15° C | 81% | 1013.9 hPa | 0 mm | - | 11 W/m² | - |
| 1777835011 | 15.56° C | 82% | 1013.9 hPa | 0 mm | - | 12 W/m² | - |
| 1777834709 | 15.56° C | 82% | 1013.9 hPa | 0 mm | - | 13 W/m² | - |
| 1777834411 | 15.56° C | 81% | 1013.9 hPa | 0 mm | - | 15 W/m² | - |
| 1777834109 | 15.56° C | 81% | 1013.9 hPa | 0 mm | - | 17 W/m² | - |
| 1777833810 | 15.56° C | 80% | 1013.9 hPa | 0 mm | - | 20 W/m² | - |
| 1777833510 | 15.56° C | 80% | 1013.9 hPa | 0 mm | - | 21 W/m² | - |
| 1777833210 | 16.11° C | 80% | 1013.9 hPa | 0 mm | - | 23 W/m² | - |
| 1777832909 | 16.11° C | 79% | 1013.9 hPa | 0 mm | - | 28 W/m² | - |
| 1777832609 | 16.11° C | 78% | 1013.5 hPa | 0 mm | - | 31 W/m² | - |
| 1777832310 | 16.67° C | 77% | 1013.9 hPa | 0 mm | - | 33 W/m² | - |
| 1777832009 | 16.67° C | 76% | 1013.9 hPa | 0 mm | - | 37 W/m² | - |
| 1777831709 | 17.22° C | 74% | 1013.5 hPa | 0 mm | - | 36 W/m² | - |
| 1777831410 | 17.78° C | 73% | 1013.5 hPa | 0 mm | - | 47 W/m² | - |
| 1777831109 | 18.33° C | 74% | 1013.5 hPa | 0 mm | - | 53 W/m² | - |
| 1777830810 | 18.33° C | 74% | 1013.5 hPa | 0 mm | - | 61 W/m² | - |
* Rain latest hour (hover to see other rain measurements)
** Current wind speed in m/s (hover to see current wind gust speed)